• In Portugal
  • List of Countries
  • For 7 days
  • Water Temperature
  • Satellite Maps
  • Weather Map
  • Weather Widgets
  • user-avatar
    Login

    Hourly Weather Tiraspol

    Today, 24 February, Saturday

    Time Temperature Precipitation Wind Pressure Humidity
    00:00 0°C° 0.3 mm 1 mps 760 mmHg 89%
    01:00 -2°C° 0.3 mm 2 mps 759 mmHg 91%
    02:00 -2°C° 0 mm 2 mps 759 mmHg 92%
    03:00 -3°C° 0.2 mm 2 mps 759 mmHg 93%
    04:00 -1°C° 0.2 mm 1 mps 759 mmHg 93%
    05:00 -1°C° 0.2 mm 1 mps 758 mmHg 93%
    06:00 0°C° 0.2 mm 1 mps 758 mmHg 93%
    07:00 0°C° 0.2 mm 1 mps 758 mmHg 92%
    08:00 0°C° 0.2 mm 1 mps 758 mmHg 92%
    09:00 -2°C° 0.2 mm 2 mps 757 mmHg 90%
    10:00 -1°C° 0.2 mm 2 mps 757 mmHg 87%
    11:00 -1°C° 0.2 mm 2 mps 757 mmHg 85%
    12:00 -1°C° 0.1 mm 3 mps 757 mmHg 83%
    13:00 -1°C° 0.1 mm 3 mps 757 mmHg 82%
    14:00 0°C° 0.1 mm 3 mps 757 mmHg 80%
    15:00 -2°C° 0.1 mm 4 mps 757 mmHg 80%
    16:00 -2°C° 0.1 mm 4 mps 757 mmHg 80%
    17:00 -3°C° 0.1 mm 4 mps 757 mmHg 80%
    18:00 -3°C° 0 mm 4 mps 757 mmHg 80%
    19:00 -4°C° 0 mm 4 mps 757 mmHg 81%
    20:00 -5°C° 0 mm 4 mps 757 mmHg 81%
    21:00 -5°C° 0 mm 4 mps 757 mmHg 82%
    22:00 -5°C° 0 mm 4 mps 757 mmHg 82%
    23:00 -5°C° 0 mm 4 mps 757 mmHg 83%

    Tomorrow, 25 February, Sunday

    Time Temperature Precipitation Wind Pressure Humidity
    00:00 -5°C° 0 mm 4 mps 757 mmHg 85%
    01:00 -5°C° 0 mm 4 mps 758 mmHg 86%
    02:00 -5°C° 0 mm 4 mps 758 mmHg 88%
    03:00 -5°C° 0 mm 4 mps 758 mmHg 87%
    04:00 -5°C° 0 mm 4 mps 758 mmHg 87%
    05:00 -6°C° 0 mm 5 mps 758 mmHg 87%
    06:00 -6°C° 0.1 mm 5 mps 759 mmHg 86%
    07:00 -7°C° 0.1 mm 5 mps 759 mmHg 85%
    08:00 -8°C° 0.1 mm 6 mps 759 mmHg 83%
    09:00 -8°C° 0.1 mm 6 mps 760 mmHg 81%
    10:00 -8°C° 0.1 mm 6 mps 760 mmHg 79%
    11:00 -8°C° 0.1 mm 6 mps 760 mmHg 77%
    12:00 -8°C° 0 mm 6 mps 761 mmHg 76%
    13:00 -8°C° 0 mm 6 mps 761 mmHg 75%
    14:00 -7°C° 0 mm 5 mps 761 mmHg 73%
    15:00 -7°C° 0 mm 5 mps 761 mmHg 74%
    16:00 -9°C° 0 mm 6 mps 762 mmHg 74%
    17:00 -10°C° 0 mm 6 mps 762 mmHg 74%
    18:00 -10°C° 0 mm 5 mps 762 mmHg 75%
    19:00 -11°C° 0 mm 5 mps 763 mmHg 76%
    20:00 -12°C° 0 mm 5 mps 763 mmHg 77%
    21:00 -12°C° 0 mm 5 mps 763 mmHg 76%
    22:00 -13°C° 0 mm 5 mps 764 mmHg 76%
    23:00 -13°C° 0 mm 5 mps 764 mmHg 76%

    Day after tomorrow, 26 February, Monday

    Time Temperature Precipitation Wind Pressure Humidity
    00:00 -14°C° 0 mm 5 mps 764 mmHg 76%
    01:00 -14°C° 0 mm 5 mps 764 mmHg 76%
    02:00 -15°C° 0 mm 5 mps 764 mmHg 76%
    03:00 -15°C° 0 mm 5 mps 764 mmHg 76%
    04:00 -15°C° 0 mm 5 mps 764 mmHg 77%
    05:00 -17°C° 0 mm 5 mps 764 mmHg 77%
    06:00 -17°C° 0 mm 5 mps 764 mmHg 77%
    07:00 -17°C° 0 mm 5 mps 765 mmHg 77%
    08:00 -17°C° 0 mm 5 mps 765 mmHg 77%
    09:00 -15°C° 0 mm 5 mps 765 mmHg 73%
    10:00 -14°C° 0 mm 5 mps 765 mmHg 70%
    11:00 -13°C° 0 mm 5 mps 765 mmHg 66%
    12:00 -12°C° 0 mm 5 mps 764 mmHg 65%
    13:00 -11°C° 0 mm 5 mps 764 mmHg 63%
    14:00 -10°C° 0 mm 6 mps 763 mmHg 61%
    15:00 -10°C° 0 mm 6 mps 763 mmHg 63%
    16:00 -11°C° 0 mm 6 mps 763 mmHg 65%
    17:00 -11°C° 0 mm 6 mps 763 mmHg 67%
    18:00 -11°C° 0 mm 6 mps 763 mmHg 69%
    19:00 -12°C° 0 mm 7 mps 762 mmHg 71%
    20:00 -12°C° 0 mm 7 mps 762 mmHg 74%
    21:00 -13°C° 0 mm 7 mps 762 mmHg 74%
    22:00 -13°C° 0 mm 7 mps 762 mmHg 74%
    23:00 -13°C° 0 mm 7 mps 762 mmHg 74%

    27 February, Tuesday

    Time Temperature Precipitation Wind Pressure Humidity
    00:00 -13°C° 0.2 mm 7 mps 761 mmHg 75%
    01:00 -13°C° 0.2 mm 7 mps 761 mmHg 77%
    02:00 -13°C° 0.2 mm 7 mps 760 mmHg 78%
    03:00 -13°C° 0.6 mm 7 mps 760 mmHg 82%
    04:00 -13°C° 0.6 mm 8 mps 759 mmHg 86%
    05:00 -15°C° 0.6 mm 8 mps 758 mmHg 90%
    06:00 -15°C° 1.2 mm 8 mps 758 mmHg 91%
    07:00 -15°C° 1.2 mm 8 mps 758 mmHg 92%
    08:00 -15°C° 1.2 mm 8 mps 758 mmHg 93%
    09:00 -15°C° 1 mm 8 mps 758 mmHg 93%
    10:00 -14°C° 1 mm 9 mps 757 mmHg 92%
    11:00 -14°C° 1 mm 9 mps 757 mmHg 92%
    12:00 -13°C° 0.6 mm 8 mps 756 mmHg 91%
    13:00 -12°C° 0.6 mm 8 mps 755 mmHg 91%
    14:00 -12°C° 0.6 mm 8 mps 754 mmHg 90%
    15:00 -12°C° 0.6 mm 7 mps 754 mmHg 91%
    16:00 -13°C° 0.6 mm 7 mps 754 mmHg 91%
    17:00 -12°C° 0.6 mm 6 mps 755 mmHg 92%
    18:00 -12°C° 0.2 mm 6 mps 755 mmHg 91%
    19:00 -12°C° 0.2 mm 6 mps 755 mmHg 91%
    20:00 -14°C° 0.2 mm 6 mps 755 mmHg 91%
    21:00 -13°C° 0 mm 5 mps 756 mmHg 91%
    22:00 -14°C° 0 mm 5 mps 756 mmHg 91%
    23:00 -14°C° 0 mm 5 mps 757 mmHg 91%

    28 February, Wednesday

    Time Temperature Precipitation Wind Pressure Humidity
    00:00 -15°C° 0 mm 4 mps 757 mmHg 92%
    01:00 -16°C° 0 mm 4 mps 758 mmHg 93%
    02:00 -17°C° 0 mm 4 mps 758 mmHg 93%
    03:00 -16°C° 0 mm 3 mps 758 mmHg 93%
    04:00 -17°C° 0 mm 3 mps 759 mmHg 94%
    05:00 -17°C° 0 mm 3 mps 759 mmHg 94%
    06:00 -17°C° 0 mm 3 mps 759 mmHg 93%
    07:00 -15°C° 0 mm 2 mps 760 mmHg 93%
    08:00 -15°C° 0 mm 2 mps 760 mmHg 92%
    09:00 -15°C° 0 mm 3 mps 760 mmHg 91%
    10:00 -13°C° 0 mm 3 mps 760 mmHg 89%
    11:00 -12°C° 0 mm 4 mps 760 mmHg 88%
    12:00 -12°C° 0 mm 4 mps 760 mmHg 88%
    13:00 -11°C° 0 mm 4 mps 760 mmHg 87%
    14:00 -10°C° 0 mm 4 mps 760 mmHg 86%
    15:00 -10°C° 0.2 mm 4 mps 760 mmHg 88%
    16:00 -10°C° 0.2 mm 4 mps 760 mmHg 89%
    17:00 -11°C° 0.2 mm 4 mps 760 mmHg 90%
    18:00 -11°C° 0.2 mm 4 mps 760 mmHg 91%
    19:00 -11°C° 0.2 mm 4 mps 760 mmHg 91%
    20:00 -12°C° 0.2 mm 5 mps 760 mmHg 92%
    21:00 -13°C° 0.1 mm 5 mps 760 mmHg 91%
    22:00 -13°C° 0.1 mm 5 mps 760 mmHg 90%
    23:00 -13°C° 0.1 mm 5 mps 761 mmHg 90%

    1 March, Thursday

    Time Temperature Precipitation Wind Pressure Humidity
    00:00 -14°C° 0 mm 5 mps 761 mmHg 89%
    01:00 -15°C° 0 mm 5 mps 761 mmHg 89%
    02:00 -17°C° 0 mm 5 mps 761 mmHg 88%
    03:00 -18°C° 0 mm 5 mps 762 mmHg 88%
    04:00 -18°C° 0 mm 5 mps 762 mmHg 88%
    05:00 -18°C° 0 mm 4 mps 762 mmHg 89%
    06:00 -18°C° 0 mm 4 mps 762 mmHg 89%
    07:00 -18°C° 0 mm 4 mps 763 mmHg 88%
    08:00 -18°C° 0 mm 4 mps 763 mmHg 88%
    09:00 -17°C° 0 mm 4 mps 763 mmHg 86%
    10:00 -15°C° 0 mm 4 mps 763 mmHg 84%
    11:00 -12°C° 0 mm 4 mps 764 mmHg 81%
    12:00 -11°C° 0 mm 4 mps 763 mmHg 81%
    13:00 -11°C° 0 mm 4 mps 763 mmHg 80%
    14:00 -9°C° 0 mm 3 mps 763 mmHg 79%
    15:00 -8°C° 0 mm 2 mps 763 mmHg 81%
    16:00 -9°C° 0 mm 2 mps 763 mmHg 83%
    17:00 -8°C° 0 mm 1 mps 763 mmHg 85%
    18:00 -9°C° 0 mm 1 mps 763 mmHg 86%
    19:00 -10°C° 0 mm 1 mps 763 mmHg 87%
    20:00 -13°C° 0 mm 2 mps 763 mmHg 88%
    21:00 -13°C° 0 mm 2 mps 763 mmHg 89%
    22:00 -13°C° 0 mm 2 mps 763 mmHg 91%
    23:00 -12°C° 0 mm 2 mps 763 mmHg 92%
    Show more